FREGAT DEB, 46238

Orbit data source: Space-Track

FREGAT DEB, 46238 is space debris in LEO originally from a launch on Mon, 18 Jul 2011 UTC launched from the Tyuratam Missile And Space Complex (TTMTR). Debris objects in space refer to the collection of defunct objects orbiting the Earth. Examples of debris include non-operational satellites, rocket bodies, and fragments generated from explosions, collisions, or faulty payload assembly.

Loading next visibility...
Identifier
46238, 2011-037JY
Orbit
LEO
Last TLE update
2 days ago
Origin
Manufacturer
Lavochkin
Mission
Spacecraft
Bus & Motor
Unknown
Mass
Unknown
Launch date (UTC)
2011-07-18 (14 years ago)
Launch vehicle
Unknown
Launch site
Tyuratam Missile And Space Complex (TTMTR)
Object type
Payload
Rocket body
Debris
Shape & HBR
Unknown
Radar Cross Section
Medium (>0.1 m² and <1 m²)

Expand to show TLE details & history

TLE from 2 days ago
0 FREGAT DEB
1 46238U 11037JY  25181.65280394  .00003552  00000-0  14929+0 0  9998
2 46238  50.6377 277.6995 0912336 180.8635 179.0545 10.35026125185351
Epoch: 2025-06-30T15:40Z
TLE epoch observation values (Epoch: 2025-06-30T15:40:02.26Z)
Latitude
-0.00002°
Longitude
123.73053°
Altitude
3,327.75 km
Speed
6.111 km/s
True Right ascension
18h 30m 47s
True Declination
0° 00' 00"
Sunlit
Object was in full shadow at epoch
Visualization orbit readout
Latitude
32.94297°
Longitude
152.56469°
Altitude
3,093.655 km
Speed
6.278 km/s
Apparent Right ascension
22h 57m 58s
Apparent Declination
9° 14' 43"
Sunlit
Object is in daylight
Visualization observer readout
Local Sidereal Time
16:46:40
Azimuth
81.095° E
Elevation
3.77°
Doppler factor
1
Orbital elements
Apogee altitude
3,327.952 km
Perigee altitude
1,704.979 km
Semi-major axis
8,894.602 km
Eccentricity
0.09123
Inclination
50.6377°
RAAN
277.6995°
Arg. of periapsis
180.8635°
True anomaly
Unknown
Mean anomaly
179.0545°
Eccentric anomaly
Unknown
Mean motion
2.58734 °/min
Orbital period
139.14 mins
BSTAR
0.14929
Loading maneuver chart data...
Loading SW <> Apogee altitude chart data...
Loading historical data...
Loading historical data...
Loading historical data...
Loading historical data...
Loading historical data...
Loading historical data...
Loading historical data...

FREGAT DEB Visibility forecast

Observer location: undefined°, undefined°

Span
Click to sort rows by Start time (UTC) header in descending order
Start Az.
Max El. time (UTC)
Max El. Az.
Max El.
End time (UTC)
End Az.
31 mins2025-07-02 07:05:09.403Z189.26° SSW2025-07-02 07:22:09.403Z122.272° SE35.241°2025-07-02 07:36:09.403Z60.957° ENE
32 mins2025-07-02 09:32:09.403Z237.155° WSW2025-07-02 09:50:09.403Z348.437° N44.727°2025-07-02 10:04:09.403Z56.267° ENE
27 mins2025-07-02 12:05:09.403Z279.905° WNW2025-07-02 12:20:09.403Z357.443° N39.363°2025-07-02 12:32:09.403Z71.911° E
23 mins2025-07-02 14:37:09.403Z303.17° NW2025-07-02 14:50:09.403Z37.725° NE43.442°2025-07-02 15:00:09.403Z110.772° ESE
19 mins2025-07-02 17:06:09.403Z297.791° NW2025-07-02 17:16:09.403Z234.554° WSW34.631°2025-07-02 17:25:09.403Z167.142° S
|